Regional Weather Roundup
Issued by NWS Midland/Odessa, TX

Skip options and go directly to product.
Home | Oldest Version | Previous Version | Current Version | All | Text Only | Save Text | Print | Product List | Glossary On

Skip product version selection by date and time.   
270
ASUS44 KMAF 252010
RWRMAF
MIDLAND AREA WEATHER ROUNDUP
NATIONAL WEATHER SERVICE MIDLAND TX
300 PM CDT THU AUG 25 2016

...IN SOUTHWEST TEXAS AND SOUTHEAST NEW MEXICO...

CITY           SKY/WX    TMP DP  RH WIND       PRES   REMARKS
ALPINE         MOSUNNY   78  58  49 SW8       30.23F
ANDREWS        NOT AVBL
ARTESIA        MOSUNNY   77  63  61 NE5       30.12F
BIG SPRING     SUNNY     90  63  40 S9G16     30.09F
CARLSBAD       SUNNY     79  63  57 N9        30.10F
DRYDEN           N/A     91  61  36 CALM      30.03F
FORT STOCKTON  PTSUNNY   90  59  35 SW8       30.06F
GUAD PASS      CLOUDY    74  58  57 SW14G23   30.24F
HOBBS          PTSUNNY   79  68  69 VRB5      30.14F
MARFA          SUNNY    N/A N/A N/A VRB6      30.21F
MIDLAND AIRPK  MOSUNNY   91  58  32 S8        30.07F
MIDLAND INTL   MOSUNNY   90  61  37 VRB5      30.06F
ODESSA         MOSUNNY   86  61  42 W7G16     30.08F
PECOS          SUNNY     79  69  73 CALM      30.07F
PRESIDIO       NOT AVBL
SEMINOLE       CLOUDY    82  64  55 CALM      30.11F
SNYDER           N/A     90  63  40 S7        30.07F
WINK           MOSUNNY   82  65  56 VRB5      30.06F
$$
...OTHER STATIONS IN TEXAS...

CITY           SKY/WX    TMP DP  RH WIND       PRES   REMARKS
ABILENE        SUNNY     92  62  36 SE8       30.07F
AMARILLO       MOSUNNY   79  61  53 N8        30.15F
AUSTIN         MOSUNNY   92  72  51 VRB6      30.03F
BROWNSVILLE    MOSUNNY   95  73  48 SE14G25   29.97F HX 104
CORPUS CHRISTI MOSUNNY   96  71  44 SE12G18   29.99F HX 103
DALLAS FTW     PTSUNNY   93  67  42 VRB3      30.03F
DEL RIO        SUNNY     90  67  46 SE10G20   30.00F
EL PASO        PTSUNNY   83  55  38 S3        30.10F
HOUSTON INT    TSTM      75  74  96 E9        30.05F FOG
LUBBOCK        CLOUDY    83  67  58 SE8       30.12F
SAN ANGELO     SUNNY     95  51  22 SE10G18   30.05F
SAN ANTONIO    MOSUNNY   89  69  51 S8        30.04F
WACO           MOSUNNY   92  72  51 S9        30.04F
WICHITA FALLS  NOT AVBL
$$
...OTHER LOCATIONS IN NEW MEXICO...

CITY           SKY/WX    TMP DP  RH WIND       PRES   REMARKS
ALAMAGORDO     MOSUNNY   82  48  30 W6        30.13F
ALBUQUERQUE    CLOUDY    79  45  29 CALM      30.20F
CANNON AFB     LGT RAIN  78  59  52 VRB6      30.17F
CLOVIS         CLOUDY    79  61  53 SE9       30.17F
HOLLOMAN AFB   NOT AVBL
ROSWELL        MOSUNNY   82  58  43 VRB5      30.12F
RUIDOSO          N/A     70  43  37 S5        30.33S
SANTA FE       CLOUDY    76  43  30 VRB6      30.25F THUNDER
TRUTH OR CONSE MOSUNNY   84  40  21 CALM      30.15F
TUCUMCARI      PTSUNNY   80  55  42 SE7       30.16F
$$

USA.gov is the U.S. government's official web portal to all federal, state and local government web resources and services.